| time (UTC) | temp F | wind direction | speed MPH | gust MPH | rain 1hr in | rain 24hr in | rain mn in | humidity % | barometer mb |
| 20260506071547 | 56 | 0.0 | 0.0 | 0.00 | 0.00 | 0.00 | 40 | 1012.2 | |
| 20260506061543 | 55 | 0.0 | 0.0 | 0.00 | 0.00 | 0.00 | 45 | 1011.9 | |
| 20260506044544 | 44 | 0.0 | 0.0 | 0.00 | 0.00 | 0.00 | 56 | 1011.0 | |
| 20260506043039 | 42 | 0.0 | 0.0 | 0.00 | 0.00 | 0.00 | 57 | 1010.8 | |
| 20260506041544 | 40 | 0.0 | 0.0 | 0.00 | 0.00 | 0.00 | 58 | 1010.9 | |
| 20260506040144 | 38 | 0.0 | 0.0 | 0.00 | 0.00 | 0.00 | 58 | 1010.6 | |
| 20260506034644 | 37 | 0.0 | 0.0 | 0.00 | 0.00 | 0.00 | 58 | 1010.8 | |
| 20260506033045 | 37 | 0.0 | 0.0 | 0.00 | 0.00 | 0.00 | 58 | 1010.6 | |
| 20260506031549 | 37 | 0.0 | 0.0 | 0.00 | 0.00 | 0.00 | 57 | 1010.2 | |
| 20260506030044 | 37 | 0.0 | 0.0 | 0.00 | 0.00 | 0.00 | 57 | 1010.1 | |
| 20260506024543 | 37 | 0.0 | 0.0 | 0.00 | 0.00 | 0.00 | 57 | 1009.9 | |
| 20260506023015 | 37 | 0.0 | 0.0 | 0.00 | 0.00 | 0.00 | 56 | 1009.8 | |
| 20260506020028 | 37 | 0.0 | 0.0 | 0.00 | 0.00 | 0.00 | 56 | 1009.5 | |
| 20260506014527 | 37 | 0.0 | 0.0 | 0.00 | 0.00 | 0.00 | 55 | 1009.4 | |
| 20260506013032 | 38 | 0.0 | 0.0 | 0.00 | 0.00 | 0.00 | 55 | 1009.4 | |
| 20260506011535 | 38 | 0.0 | 0.0 | 0.00 | 0.00 | 0.00 | 55 | 1009.0 | |
| 20260506010040 | 38 | 0.0 | 0.0 | 0.00 | 0.00 | 0.00 | 54 | 1009.3 | |
| 20260506004544 | 38 | 0.0 | 0.0 | 0.00 | 0.00 | 0.00 | 54 | 1009.1 | |
| 20260506003043 | 38 | 0.0 | 0.0 | 0.00 | 0.00 | 0.00 | 54 | 1009.1 | |
| 20260506001547 | 39 | 0.0 | 0.0 | 0.00 | 0.00 | 0.00 | 53 | 1008.9 | |
| 20260506000052 | 39 | 0.0 | 0.0 | 0.00 | 0.00 | 0.00 | 53 | 1008.8 | |
| 20260505234544 | 39 | 0.0 | 0.0 | 0.00 | 0.00 | 0.00 | 52 | 1008.7 | |
| 20260505233043 | 40 | 0.0 | 0.0 | 0.00 | 0.00 | 0.00 | 51 | 1008.7 | |
| 20260505231542 | 40 | 0.0 | 0.0 | 0.00 | 0.00 | 0.00 | 51 | 1008.6 | |
| 20260505230015 | 40 | 0.0 | 0.0 | 0.00 | 0.00 | 0.00 | 50 | 1008.2 | |
| 20260505224519 | 40 | 0.0 | 0.0 | 0.00 | 0.00 | 0.00 | 50 | 1008.1 | |
| 20260505221530 | 41 | 0.0 | 0.0 | 0.00 | 0.00 | 0.00 | 48 | 1008.0 | |
| 20260505220037 | 41 | 0.0 | 0.0 | 0.00 | 0.00 | 0.00 | 47 | 1008.1 | |
| 20260505214537 | 42 | 0.0 | 0.0 | 0.00 | 0.00 | 0.00 | 46 | 1008.0 | |
| 20260505213042 | 42 | 0.0 | 0.0 | 0.00 | 0.00 | 0.00 | 46 | 1007.9 | |
| 20260505211535 | 43 | 0.0 | 0.0 | 0.00 | 0.00 | 0.00 | 45 | 1007.8 | |
| 20260505204535 | 43 | 0.0 | 0.0 | 0.00 | 0.00 | 0.00 | 44 | 1007.3 | |
| 20260505203042 | 44 | 0.0 | 0.0 | 0.00 | 0.00 | 0.00 | 43 | 1007.3 | |
| 20260505201533 | 44 | 0.0 | 0.0 | 0.00 | 0.00 | 0.00 | 42 | 1007.0 | |
| 20260505200047 | 45 | 0.0 | 0.0 | 0.00 | 0.00 | 0.00 | 42 | 1007.1 | |
| 20260505194531 | 45 | 0.0 | 0.0 | 0.00 | 0.00 | 0.00 | 41 | 1006.8 | |
| 20260505193044 | 45 | 0.0 | 0.0 | 0.00 | 0.00 | 0.00 | 40 | 1006.7 | |
| 20260505191521 | 46 | 0.0 | 0.0 | 0.00 | 0.00 | 0.00 | 39 | 1006.5 | |
| 20260505190027 | 46 | 0.0 | 0.0 | 0.00 | 0.00 | 0.00 | 38 | 1006.4 | |
| 20260505184528 | 47 | 0.0 | 0.0 | 0.00 | 0.00 | 0.00 | 38 | 1006.3 | |
| 20260505183045 | 47 | 0.0 | 0.0 | 0.00 | 0.00 | 0.00 | 38 | 1006.0 | |
| 20260505181525 | 48 | 0.0 | 0.0 | 0.00 | 0.00 | 0.00 | 37 | 1006.1 | |
| 20260505180044 | 49 | 0.0 | 0.0 | 0.00 | 0.00 | 0.00 | 38 | 1005.7 | |
| 20260505174625 | 49 | 0.0 | 0.0 | 0.00 | 0.00 | 0.00 | 38 | 1005.9 | |
| 20260505173043 | 50 | 0.0 | 0.0 | 0.00 | 0.00 | 0.00 | 37 | 1005.6 | |
| 20260505171519 | 50 | 0.0 | 0.0 | 0.00 | 0.00 | 0.00 | 37 | 1005.5 | |
| 20260505170147 | 51 | 0.0 | 0.0 | 0.00 | 0.00 | 0.00 | 37 | 1005.5 | |
| 20260505164522 | 51 | 0.0 | 0.0 | 0.00 | 0.00 | 0.00 | 37 | 1005.4 | |
| 20260505163044 | 52 | 0.0 | 0.0 | 0.00 | 0.00 | 0.00 | 36 | 1005.2 | |
| 20260505161517 | 52 | 0.0 | 0.0 | 0.00 | 0.00 | 0.00 | 36 | 1005.2 | |
| 20260505153025 | 54 | 0.0 | 0.0 | 0.00 | 0.00 | 0.00 | 36 | 1004.8 | |
| 20260505151528 | 54 | 0.0 | 0.0 | 0.00 | 0.00 | 0.00 | 36 | 1004.7 | |
| 20260505124546 | 55 | 0.0 | 0.0 | 0.00 | 0.00 | 0.00 | 41 | 1004.2 | |
| 20260505123019 | 55 | 0.0 | 0.0 | 0.00 | 0.00 | 0.00 | 42 | 1004.3 | |
| 20260505121523 | 55 | 0.0 | 0.0 | 0.00 | 0.00 | 0.00 | 41 | 1004.1 | |
| 20260505120025 | 55 | 0.0 | 0.0 | 0.00 | 0.00 | 0.00 | 40 | 1003.9 | |
| 20260505114633 | 55 | 0.0 | 0.0 | 0.00 | 0.00 | 0.00 | 41 | 1003.5 | |
| 20260505113033 | 56 | 0.0 | 0.0 | 0.00 | 0.00 | 0.00 | 40 | 1003.5 | |
| 20260505111538 | 56 | 0.0 | 0.0 | 0.00 | 0.00 | 0.00 | 41 | 1003.4 | |
| 20260505101544 | 57 | 0.0 | 0.0 | 0.00 | 0.00 | 0.00 | 44 | 1002.5 | |
| 20260505100042 | 58 | 0.0 | 0.0 | 0.00 | 0.00 | 0.00 | 43 | 1002.2 | |
| 20260505094544 | 58 | 0.0 | 0.0 | 0.00 | 0.00 | 0.00 | 45 | 1002.0 | |
| 20260505093045 | 58 | 0.0 | 0.0 | 0.00 | 0.00 | 0.00 | 47 | 1001.4 | |
| 20260505091543 | 58 | 0.0 | 0.0 | 0.00 | 0.00 | 0.00 | 46 | 1001.4 | |
| 20260505090018 | 59 | 0.0 | 0.0 | 0.00 | 0.00 | 0.00 | 46 | 1001.1 | |
| 20260505084523 | 60 | 0.0 | 0.0 | 0.00 | 0.00 | 0.00 | 46 | 1001.0 | |
| 20260505083026 | 62 | 0.0 | 0.0 | 0.00 | 0.00 | 0.00 | 46 | 1001.0 | |
| 20260505081528 | 64 | 0.0 | 0.0 | 0.00 | 0.00 | 0.00 | 47 | 1001.0 | |
| 20260505080034 | 64 | 0.0 | 0.0 | 0.00 | 0.00 | 0.00 | 50 | 1000.7 | |
| 20260505074540 | 63 | 0.0 | 0.0 | 0.00 | 0.00 | 0.00 | 50 | 1000.6 | |
| 20260505073035 | 62 | 0.0 | 0.0 | 0.00 | 0.00 | 0.00 | 51 | 1000.6 |